Weather History for KGON - December, 2012

Change the Weather History Date:

Saturday, December 29, 2012

  Actual Average Record
Temperature  
Mean Temperature 32 °F -  
Max Temperature 37 °F 40 °F 69 °F (1996)
Min Temperature 26 °F 23 °F 5 °F (1993)
Degree Days  
Heating Degree Days 34    
Moisture  
Dew Point 30 °F    
Average Humidity 92    
Maximum Humidity 100    
Minimum Humidity 75    
Precipitation  
Precipitation 0.12 in - - ()
Sea Level Pressure  
Sea Level Pressure 29.59 in    
Wind  
Wind Speed 9 mph (North)    
Max Wind Speed 18 mph    
Max Gust Speed 24 mph    
Visibility 4 miles    
Events Fog , Rain , Snow    
Averages and records for this station are not official NWS values.
T = Trace of Precipitation, MM = Missing Value Source: NWS Daily Summary

Daily Weather History Graph

Daily Weather History Graph

Search for Another Location

Airport or City:

Trip Planner

Search our weather history database for the weather conditions in past years. The results will help you decide how hot, cold, wet, or windy it might be!

Date:

Astronomy

Dec. 29, 2012 Rise Set
Actual Time 7:13 AM EST 4:27 PM EST
Civil Twilight 6:42 AM EST 4:58 PM EST
Nautical Twilight 6:07 AM EST 5:33 PM EST
Astronomical Twilight 5:34 AM EST 6:07 PM EST
Moon 5:58 PM EST (12/29) 7:44 AM EST (12/29)
Length of Visible Light 10h 16m
Length of Day
9h 13m
Full, 98% of the Moon is Illuminated
Dec 29
Full
Jan 4
Last Quarter
Jan 11
New
Jan 18
First Quarter
Jan 26
Full

Hourly Weather History & Observations

Time (EST) Temp. Windchill Dew Point Humidity Pressure Visibility Wind Dir Wind Speed Gust Speed Precip Events Conditions
12:56 AM 27.0 °F 23.0 °F 21.9 °F 81% 30.03 in 10.0 mi NNW 3.5 mph - N/A   Clear
1:56 AM 26.1 °F - 21.9 °F 84% 30.02 in 10.0 mi Calm Calm - N/A   Clear
2:56 AM 26.1 °F - 23.0 °F 88% 30.02 in 9.0 mi Calm Calm - N/A   Clear
3:56 AM 26.1 °F - 23.0 °F 88% 30.01 in 9.0 mi Calm Calm - N/A   Clear
4:56 AM 27.0 °F - 24.1 °F 89% 30.00 in 9.0 mi Calm Calm - N/A   Clear
5:56 AM 28.9 °F 25.2 °F 25.0 °F 85% 30.00 in 9.0 mi North 3.5 mph - N/A   Overcast
6:56 AM 28.9 °F 22.8 °F 25.0 °F 85% 29.97 in 8.0 mi North 5.8 mph - N/A   Clear
7:56 AM 28.9 °F 23.9 °F 25.0 °F 85% 29.97 in 7.0 mi North 4.6 mph - N/A   Partly Cloudy
8:56 AM 30.0 °F 23.2 °F 25.0 °F 82% 29.93 in 8.0 mi NNE 6.9 mph - N/A   Overcast
9:56 AM 33.1 °F 28.7 °F 27.0 °F 78% 29.90 in 9.0 mi NE 4.6 mph - N/A   Overcast
10:56 AM 35.1 °F 29.3 °F 28.9 °F 78% 29.86 in 9.0 mi NE 6.9 mph - N/A   Overcast
11:51 AM 37.4 °F 30.8 °F 30.2 °F 75% 29.79 in 9.0 mi NE 9.2 mph - 0.00 in   Overcast
11:56 AM 37.0 °F 28.9 °F 30.9 °F 79% 29.78 in 9.0 mi NE 12.7 mph - 0.00 in   Overcast
12:56 PM 35.6 °F 28.0 °F 30.2 °F 81% 29.71 in 9.0 mi NE 10.4 mph - N/A   Overcast
1:20 PM 35.6 °F 26.6 °F 32.0 °F 87% 29.69 in 2.5 mi NNE 13.8 mph 20.7 mph 0.01 in Rain Light Rain
1:27 PM 35.6 °F 28.0 °F 32.0 °F 87% 29.69 in 4.0 mi NNE 10.4 mph 20.7 mph 0.01 in Rain Light Rain
1:56 PM 35.1 °F 27.4 °F 32.0 °F 89% 29.66 in 6.0 mi NE 10.4 mph - 0.01 in Rain Light Rain
2:56 PM 34.0 °F 26.6 °F 32.0 °F 92% 29.65 in 3.0 mi NE 9.2 mph - 0.00 in Rain Light Rain
3:03 PM 33.8 °F 27.0 °F 32.0 °F 93% 29.65 in 2.0 mi NE 8.1 mph - 0.00 in Rain Rain
3:33 PM 33.8 °F 24.8 °F 32.0 °F 93% 29.61 in 1.0 mi NNE 12.7 mph - N/A Snow Light Snow
3:41 PM 33.8 °F 24.3 °F 32.0 °F 93% 29.60 in 1.0 mi NNE 13.8 mph - N/A Snow Light Snow
3:49 PM 32.0 °F 21.2 °F 32.0 °F 100% 29.60 in 0.5 mi NNE 16.1 mph - N/A Fog , Snow Snow
3:56 PM 32.0 °F 22.5 °F 32.0 °F 100% 29.59 in 0.5 mi NE 12.7 mph - N/A Fog , Snow Snow
4:01 PM 32.0 °F 21.6 °F 30.2 °F 93% 29.58 in 1.0 mi NNE 15.0 mph 23.0 mph 0.01 in Snow Light Snow
4:16 PM 32.0 °F 23.6 °F 30.2 °F 93% 29.56 in 1.5 mi NNE 10.4 mph 21.9 mph 0.01 in Snow Light Snow
4:42 PM 32.0 °F 22.1 °F 30.2 °F 93% 29.52 in 2.0 mi NNE 13.8 mph - 0.01 in Snow Light Snow
4:48 PM 32.0 °F 21.6 °F 30.2 °F 93% 29.51 in 3.0 mi NNE 15.0 mph 21.9 mph 0.02 in Snow Light Snow
4:56 PM 32.0 °F 21.2 °F 32.0 °F 100% 29.51 in 4.0 mi NNE 16.1 mph - 0.02 in   Overcast
5:06 PM 33.8 °F 24.8 °F 32.0 °F 93% 29.50 in 6.0 mi NNE 12.7 mph - 0.00 in Rain Light Freezing Rain
5:32 PM 33.8 °F 23.2 °F 32.0 °F 93% 29.49 in 4.0 mi NNE 17.3 mph 21.9 mph 0.02 in Rain Light Freezing Rain
5:41 PM 33.8 °F 24.8 °F 32.0 °F 93% 29.48 in 4.0 mi NNE 12.7 mph 21.9 mph 0.04 in Rain Rain
5:56 PM 33.1 °F 21.9 °F 32.0 °F 96% 29.46 in 4.0 mi NNE 18.4 mph 24.2 mph 0.07 in Rain Rain
6:14 PM 33.8 °F 23.5 °F 32.0 °F 93% 29.44 in 3.0 mi North 16.1 mph 24.2 mph 0.02 in Snow Light Snow
6:34 PM 33.8 °F 23.5 °F 32.0 °F 93% 29.44 in 0.8 mi North 16.1 mph - 0.02 in Snow Light Snow
6:56 PM 32.0 °F 21.6 °F 32.0 °F 100% 29.42 in 1.0 mi North 15.0 mph - 0.02 in Snow Light Snow
7:11 PM 32.0 °F 22.1 °F 32.0 °F 100% 29.41 in 0.8 mi North 13.8 mph - 0.00 in Snow Light Snow
7:32 PM 32.0 °F 20.5 °F 30.2 °F 93% 29.39 in 1.0 mi North 18.4 mph - 0.00 in Snow Light Snow
7:40 PM 32.0 °F 20.8 °F 30.2 °F 93% 29.39 in 1.5 mi North 17.3 mph - 0.00 in Snow Light Snow
7:56 PM 32.0 °F 22.1 °F 30.9 °F 96% 29.38 in 1.2 mi North 13.8 mph - 0.00 in Snow Light Snow
8:09 PM 30.2 °F 19.3 °F 30.2 °F 100% 29.37 in 0.8 mi North 15.0 mph - 0.00 in Snow Light Snow
8:19 PM 32.0 °F 22.5 °F 30.2 °F 93% 29.37 in 0.8 mi North 12.7 mph 23.0 mph 0.00 in Snow Light Snow
8:33 PM 32.0 °F 21.6 °F 32.0 °F 100% 29.37 in 1.0 mi North 15.0 mph 23.0 mph 0.00 in Snow Light Snow
8:42 PM 32.0 °F 21.6 °F 32.0 °F 100% 29.36 in 0.8 mi North 15.0 mph - 0.00 in Snow Light Snow
8:56 PM 32.0 °F 21.2 °F 32.0 °F 100% 29.37 in 1.0 mi NNW 16.1 mph - 0.00 in Snow Light Snow
9:03 PM 32.0 °F 20.8 °F 32.0 °F 100% 29.37 in 1.2 mi NNW 17.3 mph - 0.00 in Snow Light Snow
9:13 PM 32.0 °F 20.8 °F 32.0 °F 100% 29.37 in 1.5 mi NNW 17.3 mph - 0.00 in Snow Light Snow
9:30 PM 32.0 °F 21.2 °F 32.0 °F 100% 29.38 in 2.0 mi NNW 16.1 mph - 0.00 in Snow Light Snow
9:46 PM 33.8 °F 23.9 °F 32.0 °F 93% 29.40 in 3.0 mi NNW 15.0 mph - 0.00 in Snow Light Snow
9:53 PM 33.8 °F 24.8 °F 32.0 °F 93% 29.40 in 2.0 mi NNW 12.7 mph - 0.00 in Snow Light Snow
9:56 PM 33.1 °F 23.4 °F 32.0 °F 96% 29.40 in 1.8 mi NNW 13.8 mph - 0.00 in Snow Light Snow
10:05 PM 33.8 °F 24.3 °F 32.0 °F 93% 29.41 in 1.2 mi NNW 13.8 mph 23.0 mph N/A Snow Light Snow
10:56 PM 32.0 °F 22.1 °F 32.0 °F 100% 29.42 in 1.8 mi NNW 13.8 mph - 0.00 in Snow Light Snow
11:04 PM 32.0 °F 21.2 °F 30.2 °F 93% 29.42 in 2.0 mi NNW 16.1 mph 21.9 mph 0.00 in Snow Light Snow
11:11 PM 32.0 °F 21.2 °F 30.2 °F 93% 29.43 in 2.5 mi NW 16.1 mph 21.9 mph 0.00 in Snow Light Snow
11:22 PM 32.0 °F 21.2 °F 30.2 °F 93% 29.43 in 3.0 mi NNW 16.1 mph - 0.00 in Snow Light Snow
11:56 PM 32.0 °F 21.2 °F 28.9 °F 88% 29.45 in 9.0 mi NW 16.1 mph 23.0 mph 0.00 in   Overcast